Time,TemperatureF,DewpointF,PressureIn,WindDirection,WindDirectionDegrees,WindSpeedMPH,WindSpeedGustMPH,Humidity,HourlyPrecipIn,Conditions,Clouds,dailyrainin,SoftwareType,DateUTC
2013-06-30 00:02:00,63.0,52.0,29.95,North,-999,0.0,-999.0,68,-99.99,,,-99.99,,2013-06-30 05:02:00,
2013-06-30 00:12:00,62.0,52.0,29.95,North,-999,0.0,-999.0,71,-99.99,,,-99.99,,2013-06-30 05:12:00,
2013-06-30 00:22:00,61.0,52.0,29.95,North,-999,0.0,-999.0,73,-99.99,,,-99.99,,2013-06-30 05:22:00,
2013-06-30 00:33:00,61.0,52.0,29.95,North,-999,0.0,-999.0,73,-99.99,,,-99.99,,2013-06-30 05:33:00,
2013-06-30 00:43:00,61.0,53.0,29.96,North,-999,0.0,-999.0,76,-99.99,,,-99.99,,2013-06-30 05:43:00,
2013-06-30 00:53:00,60.0,53.0,29.96,North,-999,0.0,-999.0,78,-99.99,,,-99.99,,2013-06-30 05:53:00,
2013-06-30 01:02:00,60.0,53.0,29.96,North,-999,0.0,-999.0,78,-99.99,,,-99.99,,2013-06-30 06:02:00,
2013-06-30 01:12:00,60.0,53.0,29.96,North,-999,0.0,-999.0,78,-99.99,,,-99.99,,2013-06-30 06:12:00,
2013-06-30 01:23:00,60.0,53.0,29.96,North,-999,0.0,-999.0,79,-99.99,,,-99.99,,2013-06-30 06:23:00,
2013-06-30 01:34:00,60.0,53.0,29.96,North,-999,0.0,-999.0,79,-99.99,,,-99.99,,2013-06-30 06:34:00,
2013-06-30 01:43:00,59.0,52.0,29.96,North,-999,0.0,-999.0,78,-99.99,,,-99.99,,2013-06-30 06:43:00,
2013-06-30 01:53:00,59.0,52.0,29.96,North,-999,0.0,-999.0,79,-99.99,,,-99.99,,2013-06-30 06:53:00,
2013-06-30 02:02:00,59.0,52.0,29.96,North,-999,0.0,-999.0,79,-99.99,,,-99.99,,2013-06-30 07:02:00,
2013-06-30 02:12:00,59.0,53.0,29.97,North,-999,0.0,-999.0,80,-99.99,,,-99.99,,2013-06-30 07:12:00,
2013-06-30 02:22:00,58.0,52.0,29.97,North,-999,0.0,-999.0,81,-99.99,,,-99.99,,2013-06-30 07:22:00,
2013-06-30 02:33:00,58.0,52.0,29.97,North,-999,0.0,-999.0,81,-99.99,,,-99.99,,2013-06-30 07:33:00,
2013-06-30 02:44:00,58.0,52.0,29.97,North,-999,0.0,-999.0,81,-99.99,,,-99.99,,2013-06-30 07:44:00,
2013-06-30 02:53:00,58.0,52.0,29.97,North,-999,0.0,-999.0,81,-99.99,,,-99.99,,2013-06-30 07:53:00,
2013-06-30 03:02:00,58.0,52.0,29.97,North,-999,0.0,-999.0,81,-99.99,,,-99.99,,2013-06-30 08:02:00,
2013-06-30 03:12:00,58.0,53.0,29.97,North,-999,0.0,-999.0,83,-99.99,,,-99.99,,2013-06-30 08:12:00,
2013-06-30 03:22:00,57.0,52.0,29.98,North,-999,0.0,-999.0,84,-99.99,,,-99.99,,2013-06-30 08:22:00,
2013-06-30 03:33:00,57.0,52.0,29.98,North,-999,0.0,-999.0,84,-99.99,,,-99.99,,2013-06-30 08:33:00,
2013-06-30 03:42:00,57.0,52.0,29.99,North,-999,0.0,-999.0,84,-99.99,,,-99.99,,2013-06-30 08:42:00,
2013-06-30 03:53:00,57.0,52.0,29.99,North,-999,0.0,-999.0,83,-99.99,,,-99.99,,2013-06-30 08:53:00,
2013-06-30 04:01:00,57.0,52.0,29.99,North,-999,0.0,-999.0,83,-99.99,,,-99.99,,2013-06-30 09:01:00,
2013-06-30 04:12:00,57.0,52.0,30.00,North,-999,0.0,-999.0,83,-99.99,,,-99.99,,2013-06-30 09:12:00,
2013-06-30 04:23:00,56.0,51.0,30.00,North,-999,0.0,-999.0,84,-99.99,,,-99.99,,2013-06-30 09:23:00,
2013-06-30 04:34:00,56.0,51.0,30.00,North,-999,0.0,-999.0,84,-99.99,,,-99.99,,2013-06-30 09:34:00,
2013-06-30 04:43:00,56.0,51.0,30.01,North,-999,0.0,-999.0,84,-99.99,,,-99.99,,2013-06-30 09:43:00,
2013-06-30 04:53:00,56.0,51.0,30.01,North,-999,0.0,-999.0,84,-99.99,,,-99.99,,2013-06-30 09:53:00,
2013-06-30 05:02:00,56.0,51.0,30.01,North,-999,0.0,-999.0,84,-99.99,,,-99.99,,2013-06-30 10:02:00,
2013-06-30 05:11:00,56.0,52.0,30.01,North,-999,0.0,-999.0,85,-99.99,,,-99.99,,2013-06-30 10:11:00,
2013-06-30 05:22:00,56.0,52.0,30.00,North,-999,0.0,-999.0,86,-99.99,,,-99.99,,2013-06-30 10:22:00,
2013-06-30 05:33:00,56.0,52.0,30.00,North,-999,0.0,-999.0,86,-99.99,,,-99.99,,2013-06-30 10:33:00,
2013-06-30 05:42:00,56.0,52.0,30.01,North,-999,0.0,-999.0,86,-99.99,,,-99.99,,2013-06-30 10:42:00,
2013-06-30 05:53:00,56.0,52.0,30.01,North,-999,0.0,-999.0,86,-99.99,,,-99.99,,2013-06-30 10:53:00,
2013-06-30 06:02:00,56.0,52.0,30.01,North,-999,0.0,-999.0,86,-99.99,,,-99.99,,2013-06-30 11:02:00,
2013-06-30 06:11:00,56.0,52.0,30.01,North,-999,0.0,-999.0,87,-99.99,,,-99.99,,2013-06-30 11:11:00,
2013-06-30 06:22:00,56.0,52.0,30.01,North,-999,0.0,-999.0,87,-99.99,,,-99.99,,2013-06-30 11:22:00,
2013-06-30 06:33:00,56.0,52.0,30.01,North,-999,0.0,-999.0,87,-99.99,,,-99.99,,2013-06-30 11:33:00,
2013-06-30 06:43:00,56.0,52.0,30.02,North,-999,0.0,-999.0,87,-99.99,,,-99.99,,2013-06-30 11:43:00,
2013-06-30 06:53:00,56.0,52.0,30.02,North,-999,0.0,-999.0,87,-99.99,,,-99.99,,2013-06-30 11:53:00,
2013-06-30 07:02:00,56.0,52.0,30.02,North,-999,0.0,-999.0,87,-99.99,,,-99.99,,2013-06-30 12:02:00,
2013-06-30 07:11:00,56.0,52.0,30.03,North,-999,0.0,-999.0,87,-99.99,,,-99.99,,2013-06-30 12:11:00,
2013-06-30 07:24:00,56.0,52.0,30.03,North,-999,0.0,-999.0,87,-99.99,,,-99.99,,2013-06-30 12:24:00,
2013-06-30 07:33:00,56.0,52.0,30.03,North,-999,0.0,-999.0,87,-99.99,,,-99.99,,2013-06-30 12:33:00,
2013-06-30 07:43:00,56.0,52.0,30.04,North,-999,0.0,-999.0,87,-99.99,,,-99.99,,2013-06-30 12:43:00,
2013-06-30 07:52:00,56.0,52.0,30.04,North,-999,0.0,-999.0,86,-99.99,,,-99.99,,2013-06-30 12:52:00,
2013-06-30 08:02:00,56.0,52.0,30.04,North,-999,0.0,-999.0,86,-99.99,,,-99.99,,2013-06-30 13:02:00,
2013-06-30 08:12:00,57.0,53.0,30.05,North,-999,0.0,-999.0,85,-99.99,,,-99.99,,2013-06-30 13:12:00,
2013-06-30 08:22:00,57.0,53.0,30.06,North,-999,0.0,-999.0,85,-99.99,,,-99.99,,2013-06-30 13:22:00,
2013-06-30 08:34:00,57.0,53.0,30.06,North,-999,0.0,-999.0,85,-99.99,,,-99.99,,2013-06-30 13:34:00,
2013-06-30 08:43:00,58.0,53.0,30.06,North,-999,0.0,-999.0,83,-99.99,,,-99.99,,2013-06-30 13:43:00,
2013-06-30 08:53:00,60.0,54.0,30.06,North,-999,0.0,-999.0,80,-99.99,,,-99.99,,2013-06-30 13:53:00,
2013-06-30 09:02:00,60.0,54.0,30.06,North,-999,0.0,-999.0,80,-99.99,,,-99.99,,2013-06-30 14:02:00,
2013-06-30 09:11:00,61.0,54.0,30.06,North,-999,0.0,-999.0,78,-99.99,,,-99.99,,2013-06-30 14:11:00,
2013-06-30 09:22:00,63.0,56.0,30.07,North,-999,0.0,-999.0,78,-99.99,,,-99.99,,2013-06-30 14:22:00,
2013-06-30 09:33:00,63.0,56.0,30.07,North,-999,0.0,-999.0,78,-99.99,,,-99.99,,2013-06-30 14:33:00,
2013-06-30 09:44:00,65.0,57.0,30.06,North,-999,0.0,-999.0,75,-99.99,,,-99.99,,2013-06-30 14:44:00,
2013-06-30 09:52:00,66.0,56.0,30.06,North,-999,0.0,-999.0,71,-99.99,,,-99.99,,2013-06-30 14:52:00,
2013-06-30 10:02:00,66.0,56.0,30.06,North,-999,0.0,-999.0,71,-99.99,,,-99.99,,2013-06-30 15:02:00,
2013-06-30 10:12:00,67.0,56.0,30.06,North,-999,0.0,-999.0,67,-99.99,,,-99.99,,2013-06-30 15:12:00,
2013-06-30 10:23:00,68.0,57.0,30.06,North,-999,0.0,-999.0,67,-99.99,,,-99.99,,2013-06-30 15:23:00,
2013-06-30 10:34:00,68.0,57.0,30.06,North,-999,0.0,-999.0,67,-99.99,,,-99.99,,2013-06-30 15:34:00,
2013-06-30 10:44:00,69.0,57.0,30.06,North,-999,0.0,-999.0,65,-99.99,,,-99.99,,2013-06-30 15:44:00,
2013-06-30 10:53:00,71.0,55.0,30.06,North,-999,0.0,-999.0,58,-99.99,,,-99.99,,2013-06-30 15:53:00,
2013-06-30 11:01:00,71.0,55.0,30.06,North,-999,0.0,-999.0,58,-99.99,,,-99.99,,2013-06-30 16:01:00,
2013-06-30 11:11:00,72.0,56.0,30.06,North,-999,0.0,-999.0,57,-99.99,,,-99.99,,2013-06-30 16:11:00,
2013-06-30 11:21:00,73.0,55.0,30.06,North,-999,0.0,-999.0,54,-99.99,,,-99.99,,2013-06-30 16:21:00,
2013-06-30 11:34:00,73.0,55.0,30.06,North,-999,0.0,-999.0,54,-99.99,,,-99.99,,2013-06-30 16:34:00,
2013-06-30 11:44:00,74.0,56.0,30.06,North,-999,0.0,-999.0,53,-99.99,,,-99.99,,2013-06-30 16:44:00,
2013-06-30 11:53:00,75.0,56.0,30.06,North,-999,0.0,-999.0,51,-99.99,,,-99.99,,2013-06-30 16:53:00,
2013-06-30 12:02:00,75.0,56.0,30.06,North,-999,0.0,-999.0,51,-99.99,,,-99.99,,2013-06-30 17:02:00,
2013-06-30 12:11:00,76.0,53.0,30.06,North,-999,0.0,-999.0,45,-99.99,,,-99.99,,2013-06-30 17:11:00,
2013-06-30 12:23:00,77.0,56.0,30.05,North,-999,0.0,-999.0,49,-99.99,,,-99.99,,2013-06-30 17:23:00,
2013-06-30 12:34:00,77.0,56.0,30.05,North,-999,0.0,-999.0,49,-99.99,,,-99.99,,2013-06-30 17:34:00,
2013-06-30 12:43:00,77.0,54.0,30.06,North,-999,0.0,-999.0,45,-99.99,,,-99.99,,2013-06-30 17:43:00,
2013-06-30 12:52:00,78.0,56.0,30.06,North,-999,0.0,-999.0,46,-99.99,,,-99.99,,2013-06-30 17:52:00,
2013-06-30 13:02:00,78.0,56.0,30.06,North,-999,0.0,-999.0,46,-99.99,,,-99.99,,2013-06-30 18:02:00,
2013-06-30 13:12:00,79.0,57.0,30.05,North,-999,0.0,-999.0,47,-99.99,,,-99.99,,2013-06-30 18:12:00,
2013-06-30 13:22:00,79.0,57.0,30.05,North,-999,0.0,-999.0,47,-99.99,,,-99.99,,2013-06-30 18:22:00,
2013-06-30 13:34:00,79.0,57.0,30.05,North,-999,0.0,-999.0,47,-99.99,,,-99.99,,2013-06-30 18:34:00,
2013-06-30 13:43:00,80.0,59.0,30.05,North,-999,0.0,-999.0,48,-99.99,,,-99.99,,2013-06-30 18:43:00,
2013-06-30 13:53:00,80.0,55.0,30.05,North,-999,0.0,-999.0,43,-99.99,,,-99.99,,2013-06-30 18:53:00,
2013-06-30 14:01:00,80.0,55.0,30.05,North,-999,0.0,-999.0,43,-99.99,,,-99.99,,2013-06-30 19:01:00,
2013-06-30 14:11:00,79.0,55.0,30.05,North,-999,0.0,-999.0,44,-99.99,,,-99.99,,2013-06-30 19:11:00,
2013-06-30 14:22:00,80.0,57.0,30.05,North,-999,0.0,-999.0,45,-99.99,,,-99.99,,2013-06-30 19:22:00,
2013-06-30 14:33:00,80.0,57.0,30.05,North,-999,0.0,-999.0,45,-99.99,,,-99.99,,2013-06-30 19:33:00,
2013-06-30 14:43:00,81.0,56.0,30.05,North,-999,0.0,-999.0,42,-99.99,,,-99.99,,2013-06-30 19:43:00,
2013-06-30 14:53:00,80.0,56.0,30.04,North,-999,0.0,-999.0,44,-99.99,,,-99.99,,2013-06-30 19:53:00,
2013-06-30 15:02:00,80.0,56.0,30.04,North,-999,0.0,-999.0,44,-99.99,,,-99.99,,2013-06-30 20:02:00,
2013-06-30 15:11:00,81.0,56.0,30.04,North,-999,0.0,-999.0,43,-99.99,,,-99.99,,2013-06-30 20:11:00,
2013-06-30 15:22:00,82.0,55.0,30.04,North,-999,0.0,-999.0,39,-99.99,,,-99.99,,2013-06-30 20:22:00,
2013-06-30 15:34:00,82.0,55.0,30.04,North,-999,0.0,-999.0,39,-99.99,,,-99.99,,2013-06-30 20:34:00,
2013-06-30 15:42:00,83.0,58.0,30.03,North,-999,0.0,-999.0,42,-99.99,,,-99.99,,2013-06-30 20:42:00,
2013-06-30 15:52:00,83.0,56.0,30.03,North,-999,0.0,-999.0,40,-99.99,,,-99.99,,2013-06-30 20:52:00,
2013-06-30 16:01:00,83.0,56.0,30.03,North,-999,0.0,-999.0,40,-99.99,,,-99.99,,2013-06-30 21:01:00,
2013-06-30 16:11:00,83.0,56.0,30.03,North,-999,0.0,-999.0,40,-99.99,,,-99.99,,2013-06-30 21:11:00,
2013-06-30 16:22:00,83.0,55.0,30.04,North,-999,0.0,-999.0,39,-99.99,,,-99.99,,2013-06-30 21:22:00,
2013-06-30 16:34:00,83.0,55.0,30.04,North,-999,0.0,-999.0,39,-99.99,,,-99.99,,2013-06-30 21:34:00,
2013-06-30 16:43:00,84.0,56.0,30.04,North,-999,0.0,-999.0,39,-99.99,,,-99.99,,2013-06-30 21:43:00,
2013-06-30 16:53:00,83.0,55.0,30.03,North,-999,0.0,-999.0,39,-99.99,,,-99.99,,2013-06-30 21:53:00,
2013-06-30 17:01:00,83.0,55.0,30.03,North,-999,0.0,-999.0,39,-99.99,,,-99.99,,2013-06-30 22:01:00,
2013-06-30 17:11:00,83.0,58.0,30.04,North,-999,0.0,-999.0,42,-99.99,,,-99.99,,2013-06-30 22:11:00,
2013-06-30 17:22:00,84.0,55.0,30.03,North,-999,0.0,-999.0,37,-99.99,,,-99.99,,2013-06-30 22:22:00,
2013-06-30 17:34:00,84.0,55.0,30.03,North,-999,0.0,-999.0,37,-99.99,,,-99.99,,2013-06-30 22:34:00,
2013-06-30 17:43:00,84.0,55.0,30.03,North,-999,0.0,-999.0,37,-99.99,,,-99.99,,2013-06-30 22:43:00,
2013-06-30 17:53:00,84.0,56.0,30.03,North,-999,0.0,-999.0,38,-99.99,,,-99.99,,2013-06-30 22:53:00,
2013-06-30 18:02:00,84.0,56.0,30.03,North,-999,0.0,-999.0,38,-99.99,,,-99.99,,2013-06-30 23:02:00,
2013-06-30 18:11:00,84.0,53.0,30.03,North,-999,0.0,-999.0,35,-99.99,,,-99.99,,2013-06-30 23:11:00,
2013-06-30 18:22:00,84.0,54.0,30.03,North,-999,0.0,-999.0,36,-99.99,,,-99.99,,2013-06-30 23:22:00,
2013-06-30 18:33:00,84.0,54.0,30.03,North,-999,0.0,-999.0,36,-99.99,,,-99.99,,2013-06-30 23:33:00,
2013-06-30 18:43:00,83.0,54.0,30.04,North,-999,0.0,-999.0,37,-99.99,,,-99.99,,2013-06-30 23:43:00,
2013-06-30 18:53:00,83.0,54.0,30.03,North,-999,0.0,-999.0,37,-99.99,,,-99.99,,2013-06-30 23:53:00,
2013-06-30 19:01:00,83.0,54.0,30.03,North,-999,0.0,-999.0,37,-99.99,,,-99.99,,2013-07-01 00:01:00,
2013-06-30 19:11:00,83.0,54.0,30.03,North,-999,0.0,-999.0,37,-99.99,,,-99.99,,2013-07-01 00:11:00,
2013-06-30 19:22:00,83.0,55.0,30.04,North,-999,0.0,-999.0,38,-99.99,,,-99.99,,2013-07-01 00:22:00,
2013-06-30 19:33:00,83.0,55.0,30.04,North,-999,0.0,-999.0,38,-99.99,,,-99.99,,2013-07-01 00:33:00,
2013-06-30 19:42:00,83.0,58.0,30.03,North,-999,0.0,-999.0,42,-99.99,,,-99.99,,2013-07-01 00:42:00,
2013-06-30 19:52:00,82.0,56.0,30.04,North,-999,0.0,-999.0,41,-99.99,,,-99.99,,2013-07-01 00:52:00,
2013-06-30 20:01:00,82.0,56.0,30.04,North,-999,0.0,-999.0,41,-99.99,,,-99.99,,2013-07-01 01:01:00,
2013-06-30 20:11:00,82.0,56.0,30.03,North,-999,0.0,-999.0,41,-99.99,,,-99.99,,2013-07-01 01:11:00,
2013-06-30 20:22:00,82.0,56.0,30.03,North,-999,0.0,-999.0,41,-99.99,,,-99.99,,2013-07-01 01:22:00,
2013-06-30 20:33:00,80.0,54.0,30.03,North,-999,0.0,-999.0,41,-99.99,,,-99.99,,2013-07-01 01:33:00,
2013-06-30 20:42:00,78.0,54.0,30.04,North,-999,0.0,-999.0,44,-99.99,,,-99.99,,2013-07-01 01:42:00,
2013-06-30 20:52:00,77.0,56.0,30.04,North,-999,0.0,-999.0,48,-99.99,,,-99.99,,2013-07-01 01:52:00,
2013-06-30 21:02:00,77.0,56.0,30.04,North,-999,0.0,-999.0,48,-99.99,,,-99.99,,2013-07-01 02:02:00,
2013-06-30 21:11:00,75.0,56.0,30.04,North,-999,0.0,-999.0,52,-99.99,,,-99.99,,2013-07-01 02:11:00,
2013-06-30 21:22:00,73.0,57.0,30.04,North,-999,0.0,-999.0,58,-99.99,,,-99.99,,2013-07-01 02:22:00,
2013-06-30 21:33:00,73.0,57.0,30.04,North,-999,0.0,-999.0,58,-99.99,,,-99.99,,2013-07-01 02:33:00,
2013-06-30 21:44:00,71.0,57.0,30.05,North,-999,0.0,-999.0,61,-99.99,,,-99.99,,2013-07-01 02:44:00,
2013-06-30 21:53:00,69.0,56.0,30.05,North,-999,0.0,-999.0,64,-99.99,,,-99.99,,2013-07-01 02:53:00,
2013-06-30 22:01:00,69.0,56.0,30.05,North,-999,0.0,-999.0,64,-99.99,,,-99.99,,2013-07-01 03:01:00,
2013-06-30 22:11:00,68.0,57.0,30.06,North,-999,0.0,-999.0,67,-99.99,,,-99.99,,2013-07-01 03:11:00,
2013-06-30 22:23:00,68.0,57.0,30.06,North,-999,0.0,-999.0,67,-99.99,,,-99.99,,2013-07-01 03:23:00,
2013-06-30 22:33:00,68.0,57.0,30.06,North,-999,0.0,-999.0,67,-99.99,,,-99.99,,2013-07-01 03:33:00,
2013-06-30 22:43:00,66.0,56.0,30.07,North,-999,0.0,-999.0,70,-99.99,,,-99.99,,2013-07-01 03:43:00,
2013-06-30 22:52:00,65.0,56.0,30.06,North,-999,0.0,-999.0,72,-99.99,,,-99.99,,2013-07-01 03:52:00,
2013-06-30 23:01:00,65.0,56.0,30.06,North,-999,0.0,-999.0,72,-99.99,,,-99.99,,2013-07-01 04:01:00,
2013-06-30 23:11:00,64.0,56.0,30.07,North,-999,0.0,-999.0,74,-99.99,,,-99.99,,2013-07-01 04:11:00,
2013-06-30 23:22:00,64.0,56.0,30.07,North,-999,0.0,-999.0,74,-99.99,,,-99.99,,2013-07-01 04:22:00,
2013-06-30 23:32:00,64.0,56.0,30.07,North,-999,0.0,-999.0,74,-99.99,,,-99.99,,2013-07-01 04:32:00,
2013-06-30 23:43:00,64.0,56.0,30.07,North,-999,0.0,-999.0,74,-99.99,,,-99.99,,2013-07-01 04:43:00,